Find Local Weather

World > North America > United States > Florida

Naples, Florida Regional Weather

Lat: 26.14N, Lon: 81.8W
Wx Zone: FLZ069
Warning FLW WEATHER ALERT - (More Info. Click Here) Warning
Feedback
Expires:201811221200;;679493
ASUS42 KTBW 221117
RWRFL 
FLORIDA REGIONAL WEATHER ROUNDUP
NATIONAL WEATHER SERVICE TAMPA BAY RUSKIN FL
600 AM EST THU NOV 22 2018

NOTE: "FAIR" INDICATES FEW OR NO CLOUDS BELOW 12,000 FEET WITH NO
SIGNIFICANT WEATHER AND/OR OBSTRUCTIONS TO VISIBILITY.


FLZ066-069-070-075>078-162-262-165-265-221200-
SOUTHWEST FLORIDA AND KEYS
  
CITY           SKY/WX    TMP DP  RH WIND       PRES   REMARKS
PUNTA GORDA    FAIR      58  54  86 NE8       30.15R                  
FT MYERS       FAIR      62  55  77 NE9       30.12R                  
SOUTHWEST INTL FAIR      62  54  74 NE7       30.13R                  
NAPLES         FAIR      65  56  72 NE10      30.11R                  
MARCO ISLAND   MOCLDY    64  59  83 N9        30.12R                  
IMMOKALEE        N/A     61  57  88 VRB5      30.12S                  
MARATHON       FAIR      72  69  90 NE12      30.07R                  
KEY WEST NAS   FAIR      75  67  76 NE14      30.08R                  
KEY WEST INTL  FAIR      75  68  78 N10       30.08R                  

STATION/POSITION SKY/WX   TEMP    WIND        PRES    WAVE   SWELL
                          AIR SEA DIR/SP/G            HT/PER HT/PER
                          (F)     (DEG/KT/KT) (MB)    (FT/S) (FT/S)
NAPLES                     65 75  360/  6/ 11 1019.5R
26.0N   85.6W              72 80   20/ 16/ 21 1020.3
DRY TORTUGAS               74      30/ 14/ 15 1019.4R
SAND KEY                   74                 1018.4R
SOMBRERO KEY               74                 1017.3R
LONG KEY                   73 78   10/ 16/ 17 1018.2R
MOLASSES REEF              73      10/ 12       N/A

$$

SKY/WX - Weather  TMP - Temperature  DP - Dew Point  RH - Relative Humidity
WIND - Wind Direction/Speed PRES - Barometric Pressure